EW5523 Weather Reports


Display with metric or nautical units.
time (UTC)temp
F
wind
direction
speed
MPH
gust
MPH
rain 1hr
in
rain 24hr
in
rain mn
in
humidity
%
barometer
mb
20260902024546 51 102 0.0 0.0 0.00 0.00 0.00 96 1017.9
20260902023048 52 102 0.0 0.0 0.00 0.00 0.00 97 1017.8
20260902021550 51 102 0.0 0.0 0.00 0.00 0.00 97 1017.8
20260902020046 50 102 0.0 0.0 0.00 0.00 0.00 96 1017.9
20260902014549 51 102 0.0 0.0 0.00 0.00 0.00 96 1017.7
20260902013044 50 102 0.0 0.0 0.00 0.00 0.00 95 1017.7
20260902011543 51 102 0.0 0.0 0.00 0.00 0.00 95 1017.8
20260902010042 51 102 0.0 0.0 0.00 0.00 0.00 95 1017.7
20260902004542 51 102 0.0 0.0 0.00 0.00 0.00 94 1017.7
20260902003042 51 102 0.0 0.0 0.00 0.00 0.00 94 1017.7
20260902001536 52 102 0.0 0.0 0.00 0.00 0.00 95 1017.8
20260902000034 52 102 0.0 0.0 0.00 0.00 0.00 95 1017.9
20260901234534 52 102 0.0 0.0 0.00 0.00 0.00 94 1018.0
20260901233034 53 102 0.0 0.0 0.00 0.00 0.00 94 1017.9
20260901231533 53 102 0.0 0.0 0.00 0.00 0.00 93 1017.9
20260901230036 54 102 0.0 0.0 0.00 0.00 0.00 95 1018.1
20260901224530 53 102 0.0 0.0 0.00 0.00 0.00 95 1018.1
20260901223029 53 101 0.0 0.0 0.00 0.00 0.00 94 1018.0
20260901221533 53 101 0.0 0.0 0.00 0.00 0.00 94 1018.0
20260901220052 53 101 0.0 0.0 0.00 0.00 0.00 94 1018.1
20260901214525 53 101 0.0 0.0 0.00 0.00 0.00 94 1018.2
20260901213056 53 101 0.0 0.0 0.00 0.00 0.00 93 1018.2
20260901211525 53 101 0.0 0.0 0.00 0.00 0.00 93 1018.2
20260901210024 53 101 0.0 0.0 0.00 0.00 0.00 93 1018.2
20260901204534 53 101 0.0 0.0 0.00 0.00 0.00 93 1018.3
20260901203044 53 101 0.0 0.0 0.00 0.00 0.00 93 1018.3
20260901201521 53 101 0.0 0.0 0.00 0.00 0.00 92 1018.3
20260901200019 53 101 0.0 0.0 0.00 0.00 0.00 92 1018.1
20260901194519 53 101 0.0 0.0 0.00 0.00 0.00 93 1018.2
20260901193018 53 101 0.0 0.0 0.00 0.00 0.00 92 1018.2
20260901191518 53 101 0.0 0.0 0.00 0.00 0.00 92 1018.2
20260901190016 53 101 0.0 0.0 0.00 0.00 0.00 92 1018.2
20260901184524 54 101 0.0 0.0 0.00 0.00 0.00 92 1018.2
20260901183014 54 101 0.0 0.0 0.00 0.00 0.00 93 1018.3
20260901181513 54 101 0.0 0.0 0.00 0.00 0.00 93 1018.3
20260901180013 54 101 0.0 0.0 0.00 0.00 0.00 93 1018.3
20260901174512 54 101 0.0 0.0 0.00 0.00 0.00 93 1018.3
20260901173011 54 101 0.0 0.0 0.00 0.00 0.00 93 1018.4
20260901171511 54 101 0.0 0.0 0.00 0.00 0.00 93 1018.4
20260901170009 54 101 0.0 0.0 0.00 0.00 0.00 93 1018.4
20260901164508 55 101 0.0 0.0 0.00 0.00 0.00 92 1018.5
20260901163009 55 101 0.0 0.0 0.00 0.00 0.00 91 1018.4
20260901161507 55 101 0.0 0.0 0.00 0.00 0.00 90 1018.4
20260901160003 55 101 0.0 0.0 0.00 0.00 0.00 90 1018.4
20260901154501 56 101 0.0 0.0 0.00 0.00 0.00 90 1018.4
20260901153058 56 101 0.0 0.0 0.00 0.00 0.00 90 1018.4
20260901151604 56 101 0.0 0.0 0.00 0.00 0.00 89 1018.3
20260901111521 59 117 0.0 0.0 0.00 0.00 0.00 78 1018.9
20260901110020 59 119 0.0 1.0 0.00 0.00 0.00 78 1018.8
20260901104518 59 124 0.0 0.0 0.00 0.00 0.00 78 1018.9
20260901103024 58 93 0.0 0.0 0.00 0.00 0.00 79 1018.9
20260901101513 57 111 0.0 1.0 0.00 0.00 0.00 79 1019.0
20260901100011 57 100 0.0 0.0 0.00 0.00 0.00 81 1019.0
20260901094513 56 120 0.0 0.0 0.00 0.00 0.00 83 1019.0
20260901093008 56 115 0.0 0.0 0.00 0.00 0.00 84 1019.1
20260901091506 55 119 0.0 0.0 0.00 0.00 0.00 85 1019.2
20260901090008 55 120 0.0 1.0 0.00 0.00 0.00 86 1019.1
20260901084504 54 86 0.0 0.0 0.00 0.00 0.00 86 1019.2
20260901083002 54 89 0.0 0.0 0.00 0.00 0.00 88 1019.1
20260901081601 54 117 0.0 0.0 0.00 0.00 0.00 88 1019.1
20260901080110 54 78 0.0 1.0 0.00 0.00 0.00 87 1019.1
20260901074600 53 116 0.0 0.0 0.00 0.00 0.00 84 1019.1
20260901073057 53 110 0.0 0.0 0.00 0.00 0.00 85 1019.1
20260901071555 53 138 0.0 1.0 0.00 0.00 0.00 84 1019.1
20260901070055 53 104 0.0 0.0 0.00 0.00 0.00 84 1019.0
20260901064553 53 102 0.0 2.0 0.00 0.00 0.00 84 1019.0
20260901063051 52 72 0.0 0.0 0.00 0.00 0.00 85 1019.0
20260901061550 52 100 0.0 0.0 0.00 0.00 0.00 87 1019.0
20260901060048 52 73 0.0 0.0 0.00 0.00 0.00 89 1019.0
20260901054547 51 74 0.0 2.0 0.00 0.00 0.00 90 1018.9
20260901053114 51 73 0.0 1.0 0.00 0.00 0.00 91 1018.9
20260901051600 51 54 0.0 1.0 0.00 0.00 0.00 92 1018.9
20260901050042 50 83 0.0 2.0 0.00 0.00 0.00 92 1018.8
20260901044552 50 89 0.0 0.0 0.00 0.00 0.00 93 1018.7
20260901043040 50 89 0.0 0.0 0.00 0.00 0.00 93 1018.6
20260901041538 50 95 0.0 0.0 0.00 0.00 0.00 93 1018.7
20260901040051 49 90 0.0 1.0 0.00 0.00 0.00 93 1018.5
20260901034543 49 93 0.0 2.0 0.00 0.00 0.00 93 1018.5
20260901033037 49 77 0.0 0.0 0.00 0.00 0.00 93 1018.4
20260901031535 49 97 0.0 0.0 0.00 0.00 0.00 93 1018.5
20260901030035 49 87 0.0 0.0 0.00 0.00 0.00 93 1018.4